Regional Weather Roundup
Issued by NWS

Home | Current Version | Previous Version | Graphics & Text | Print | Product List | Glossary On
Versions: 1 2 3 4 5 6 7 8 9 10 11 12 13 14 15 16 17 18 19 20 21 22 23 24 25 26 27
000
ASUS45 KPSR 270910
RWRAZ

ARIZONA HOURLY REGIONAL WEATHER ROUNDUP
NATIONAL WEATHER SERVICE PHOENIX AZ
200 AM MST WED JUL 27 2016

NOTE: FAIR INDICATES FEW OR NO CLOUDS BELOW 12,000 FEET WITH NO
SIGNIFICANT WEATHER AND/OR OBSTRUCTIONS TO VISIBILITY.

AZZ001>003-036-271000-
NORTHWEST ARIZONA

CITY           SKY/WX    TMP DP  RH WIND       PRES   REMARKS
BULLHEAD CITY  PTCLDY   100  57  23 CALM      29.72S
KINGMAN        PTCLDY    86  52  30 CALM      29.98S
$$

AZZ004>008-015-016-018-271000-
NORTH CENTRAL ARIZONA

CITY           SKY/WX    TMP DP  RH WIND       PRES   REMARKS
GRAND CANYON   CLEAR     56  44  64 CALM      30.28F HAZE
WILLIAMS       CLEAR     61  52  72 S9        30.35F
PRESCOTT       CLEAR     71  56  58 S6        30.13S
FLAGSTAFF      CLEAR     57  52  83 CALM      30.31R
PAYSON         PTCLDY    73  52  46 CALM      30.16S
PAGE           CLEAR     82  41  23 S6        30.05S
$$

AZZ009>014-017-271000-
NORTHEAST ARIZONA

CITY           SKY/WX    TMP DP  RH WIND       PRES   REMARKS
WINSLOW        PTCLDY    73  52  47 NE5       30.12R
SAINT JOHNS    PTCLDY    67  55  65 S3        30.18S
WINDOW ROCK    CLEAR     62  51  67 W3        30.29S
SHOW LOW       MOCLDY    64  50  59 S8        30.26R
$$

AZZ023-271000-
GREATER PHOENIX AREA

CITY           SKY/WX    TMP DP  RH WIND       PRES   REMARKS
PHOENIX        PTCLDY    93  65  39 SE15      29.78S
BUCKEYE        CLEAR     91  59  33 SW7       29.80S
LUKE AFB       CLEAR     95  62  34 SW17      29.77R
DEER VALLEY    CLEAR     92  63  38 SE7       29.82R
SCOTTSDALE     CLEAR     92  63  38 SE8       29.84R
MESA-GATEWAY   CLEAR     90  61  37 E8        29.85R
$$

AZZ027-028-271000-
SOUTHWEST MARICOPA COUNTY AND PINAL COUNTY

CITY           SKY/WX    TMP DP  RH WIND       PRES   REMARKS
CASA GRANDE    PTCLDY    90  63  40 S6        29.85S
GILA BEND      FAIR      95  60  30 S9        29.77S
$$

AZZ503-504-507>509-271000-
SOUTHEAST ARIZONA

CITY           SKY/WX    TMP DP  RH WIND       PRES   REMARKS
TUCSON         CLOUDY    82  64  54 E12       29.96F
DAVIS-MONTHAN  MOCLDY    79  67  67 SE9       29.94F
NOGALES        CLOUDY    72  66  81 SE5       30.05S
SIERRA VISTA   CLOUDY    74  55  50 W3        30.12S
DOUGLAS        CLOUDY    76  62  62 S7        30.10R
SAFFORD        CLOUDY    86  57  37 W3        29.95S
$$

AZZ020-021-025-026-031-271000-
SOUTHWEST ARIZONA

CITY           SKY/WX    TMP DP  RH WIND       PRES   REMARKS
YUMA           CLEAR     90  66  45 SE15      29.74S
$$

CAZ031-033-041-043-047-048-061-271000-
SOUTHERN CALIFORNIA

CITY           SKY/WX    TMP DP  RH WIND       PRES   REMARKS
DOWNTOWN L.A.  CLEAR     70  64  81 CALM      29.87S
L.A. AIRPORT   PTCLDY    70  62  76 NW8       29.88S
SAN DIEGO      PTCLDY    69  66  90 NW5       29.88F
BURBANK        CLEAR     74  59  59 CALM      29.88F
ONTARIO        PTCLDY    77  49  37 S3        29.89S
RIVERSIDE      CLEAR     77  48  35 N3        29.88F
PALM SPRINGS   CLEAR     94  52  24 SE3       29.75F
EL CENTRO NAS  CLEAR     93  53  25 W7        29.72S
IMPERIAL       CLEAR     94  63  35 E3        29.70S
BLYTHE         CLEAR     94  63  35 S8        29.74R
NEEDLES        PTCLDY   103  54  19 W8        29.73S HX 101
$$

NVZ020-UTZ003-271000-
SOUTHERN NEVADA-UTAH

CITY           SKY/WX    TMP DP  RH WIND       PRES   REMARKS
LAS VEGAS      CLEAR     95  41  15 SW5       29.78F
SALT LAKE CITY CLEAR     74  39  28 S3        30.04S
$$

NMZ009-TXZ055-271000-
NEW MEXICO-WEST TEXAS

CITY           SKY/WX    TMP DP  RH WIND       PRES   REMARKS
ALBUQUERQUE    MOCLDY    72  59  63 S5        30.20S
EL PASO        CLOUDY    81  59  47 S7        30.06F
$$


........................KEY........................
SKY/WX - SKY CONDITION/WEATHER
TMP    - TEMPERATURE IN FAHRENHEIT
DP     - DEW POINT IN FAHRENHEIT
RH     - RELATIVE HUMIDITY IN PERCENT
WIND   - DIRECTION AND SPEED IN MILES PER HOUR (MPH)
VRB    - VARIABLE WIND DIRECTION
PRES   - MEAN SEA LEVEL PRESSURE IN INCHES OF MERCURY
         F - FALLING PRESSURE   R - RISING PRESSURE
         S - STEADY PRESSURE
VSB    - VISIBILITY IN MILES
HX     - HEAT INDEX IN FAHRENHEIT
WCI    - WIND CHILL INDEX IN FAHRENHEIT
TC     - TEMPERATURE IN CELSIUS WHICH IS ALSO KNOWN AS
         TEMPERATURE IN CENTIGRADE
AFB    - AIR FORCE BASE
         LUKE AFB IS LUKE AIR FORCE BASE
         DAVIS-MONTHAN IS DAVIS-MONTHAN AIR FORCE BASE
NAS    - NAVAL AIR STATION
         EL CENTRO NAS IS EL CENTRO NAVAL AIR STATION
N/A    - NOT AVAILABLE





USA.gov is the U.S. government's official web portal to all federal, state and local government web resources and services.